Flushing, NY

8:47 PM EDT on July 29, 2016 (GMT -0400)
La Guardia

Weather History for KLGA - September, 2012

Change the Weather History Date:

Saturday, September 15, 2012

  Actual Average Record
Temperature  
Mean Temperature 70 °F 70 °F  
Max Temperature 78 °F 77 °F 91 °F (1993)
Min Temperature 62 °F 62 °F 49 °F (1975)
Degree Days  
Heating Degree Days 0 1  
Month to date heating degree days 0 4  
Since 1 July heating degree days 0 5  
Cooling Degree Days 5 5  
Month to date cooling degree days 145 107  
Year to date cooling degree days 1442 1140  
Growing Degree Days 20 (Base 50)    
Moisture  
Dew Point 52 °F    
Average Humidity 63    
Maximum Humidity 84    
Minimum Humidity 41    
Precipitation  
Precipitation T in 0.13 in 0.82 in (2000)
Month to date precipitation 1.80 1.80  
Year to date precipitation 25.41 32.05  
Snow  
Snow 0.00 in 0.00 in - ()
Month to date snowfall 0.0 0.0  
Since 1 July snowfall 0.0 0.0  
Snow Depth 0.00 in    
Sea Level Pressure  
Sea Level Pressure 30.09 in    
Wind  
Wind Speed 13 mph (NW)    
Max Wind Speed 24 mph    
Max Gust Speed 30 mph    
Visibility 10 miles    
Events      
T = Trace of Precipitation, MM = Missing Value Source: NWS Daily Summary

Daily Weather History Graph

Daily Weather History Graph

Search for Another Location

Airport or City:

Trip Planner

Search our weather history database for the weather conditions in past years. The results will help you decide how hot, cold, wet, or windy it might be!

Date:

Astronomy

Sep. 15, 2012 Rise Set
Actual Time 6:36 AM EDT 7:03 PM EDT
Civil Twilight 6:09 AM EDT 7:31 PM EDT
Nautical Twilight 5:36 AM EDT 8:03 PM EDT
Astronomical Twilight 5:03 AM EDT 8:36 PM EDT
Moon 6:04 AM EDT (9/15) 6:32 PM EDT (9/15)
Length of Visible Light 13h 22m
Length of Day
12h 27m
Waning Crescent, 0% of the Moon is Illuminated
Sep 15
Waning Crescent
Sep 15
New
Sep 22
First Quarter
Sep 29
Full
Oct 8
Last Quarter

Hourly Weather History & Observations

Time (EDT) Temp. Dew Point Humidity Pressure Visibility Wind Dir Wind Speed Gust Speed Precip Events Conditions
12:51 AM 70.0 °F 61.0 °F 73% 30.08 in 10.0 mi SW 10.4 mph - N/A   Scattered Clouds
1:51 AM 70.0 °F 61.0 °F 73% 30.08 in 10.0 mi WSW 8.1 mph - N/A   Mostly Cloudy
2:51 AM 71.1 °F 60.1 °F 68% 30.06 in 10.0 mi West 8.1 mph - N/A   Mostly Cloudy
3:51 AM 69.1 °F 59.0 °F 70% 30.05 in 10.0 mi NW 9.2 mph - N/A   Mostly Cloudy
4:51 AM 66.9 °F 57.0 °F 70% 30.06 in 10.0 mi NW 18.4 mph - N/A   Mostly Cloudy
5:51 AM 63.0 °F 57.0 °F 81% 30.08 in 10.0 mi NNW 13.8 mph - 0.00 in   Mostly Cloudy
6:51 AM 62.1 °F 54.0 °F 75% 30.10 in 10.0 mi NW 23.0 mph 27.6 mph N/A   Mostly Cloudy
7:51 AM 63.0 °F 52.0 °F 67% 30.12 in 10.0 mi NW 13.8 mph - N/A   Mostly Cloudy
8:51 AM 64.0 °F 52.0 °F 65% 30.13 in 10.0 mi NNW 17.3 mph - N/A   Scattered Clouds
9:51 AM 66.2 °F 50.0 °F 56% 30.12 in 10.0 mi NNW 24.2 mph 29.9 mph N/A   Scattered Clouds
10:51 AM 68.0 °F 50.0 °F 52% 30.11 in 10.0 mi NNW 13.8 mph - N/A   Partly Cloudy
11:51 AM 69.1 °F 50.0 °F 51% 30.11 in 10.0 mi North 11.5 mph 18.4 mph N/A   Partly Cloudy
12:51 PM 71.1 °F 50.0 °F 47% 30.10 in 10.0 mi NW 10.4 mph 18.4 mph N/A   Scattered Clouds
1:51 PM 72.0 °F 48.9 °F 44% 30.08 in 10.0 mi NNW 15.0 mph 23.0 mph N/A   Scattered Clouds
2:51 PM 72.0 °F 48.9 °F 44% 30.07 in 10.0 mi NW 12.7 mph - N/A   Scattered Clouds
3:51 PM 73.0 °F 48.9 °F 42% 30.06 in 10.0 mi NW 18.4 mph 24.2 mph N/A   Scattered Clouds
4:51 PM 73.0 °F 48.9 °F 42% 30.06 in 10.0 mi NNW 12.7 mph 21.9 mph N/A   Mostly Cloudy
5:51 PM 72.0 °F 48.0 °F 43% 30.07 in 10.0 mi NW 16.1 mph - N/A   Mostly Cloudy
6:51 PM 70.0 °F 48.0 °F 46% 30.08 in 10.0 mi NW 16.1 mph 19.6 mph N/A   Scattered Clouds
7:51 PM 70.0 °F 46.9 °F 44% 30.08 in 10.0 mi NNW 10.4 mph - N/A   Scattered Clouds
8:51 PM 69.1 °F 48.0 °F 47% 30.09 in 10.0 mi NNW 13.8 mph - N/A   Partly Cloudy
9:51 PM 68.0 °F 48.9 °F 50% 30.10 in 10.0 mi NNW 9.2 mph - N/A   Partly Cloudy
10:51 PM 66.2 °F 48.2 °F 52% 30.10 in 10.0 mi North 6.9 mph - N/A   Mostly Cloudy
11:51 PM 66.0 °F 48.0 °F 52% 30.11 in 10.0 mi NNW 9.2 mph - N/A   Scattered Clouds